Time,TemperatureF,DewpointF,PressureIn,WindDirection,WindDirectionDegrees,WindSpeedMPH,WindSpeedGustMPH,Humidity,HourlyPrecipIn,Conditions,Clouds,dailyrainin,SoftwareType,DateUTC
2013-05-16 00:10:00,74.2,64.0,30.15,ENE,69,1.0,10.0,70,0.00,,,0.00,weatherlink.com 1.10,2013-05-16 04:10:00,
2013-05-16 00:25:00,74.0,63.0,30.15,East,86,5.0,12.0,69,0.00,,,0.00,weatherlink.com 1.10,2013-05-16 04:25:00,
2013-05-16 00:40:00,73.7,63.0,30.14,ESE,107,3.0,7.0,69,0.00,,,0.00,weatherlink.com 1.10,2013-05-16 04:40:00,
2013-05-16 00:55:00,73.3,62.0,30.14,East,90,0.0,6.0,68,0.00,,,0.00,weatherlink.com 1.10,2013-05-16 04:55:00,
2013-05-16 01:10:00,73.2,62.0,30.13,ENE,77,3.0,7.0,68,0.00,,,0.00,weatherlink.com 1.10,2013-05-16 05:10:00,
2013-05-16 01:25:00,72.8,62.0,30.13,ENE,78,0.0,6.0,68,0.00,,,0.00,weatherlink.com 1.10,2013-05-16 05:25:00,
2013-05-16 01:40:00,72.6,61.0,30.12,ENE,72,0.0,7.0,68,0.00,,,0.00,weatherlink.com 1.10,2013-05-16 05:40:00,
2013-05-16 01:55:00,72.3,61.0,30.11,ENE,74,0.0,4.0,68,0.00,,,0.00,weatherlink.com 1.10,2013-05-16 05:55:00,
2013-05-16 02:10:00,71.7,61.0,30.10,ENE,74,0.0,2.0,69,0.00,,,0.00,weatherlink.com 1.10,2013-05-16 06:10:00,
2013-05-16 02:25:00,71.3,61.0,30.10,ENE,74,1.0,3.0,71,0.00,,,0.00,weatherlink.com 1.10,2013-05-16 06:25:00,
2013-05-16 02:40:00,71.3,61.0,30.09,ENE,74,0.0,3.0,71,0.00,,,0.00,weatherlink.com 1.10,2013-05-16 06:40:00,
2013-05-16 02:55:00,71.1,61.0,30.09,ENE,74,0.0,3.0,71,0.00,,,0.00,weatherlink.com 1.10,2013-05-16 06:55:00,
2013-05-16 03:10:00,70.9,61.0,30.09,ENE,74,0.0,2.0,70,0.00,,,0.00,weatherlink.com 1.10,2013-05-16 07:10:00,
2013-05-16 03:25:00,70.6,61.0,30.09,ENE,74,0.0,2.0,71,0.00,,,0.00,weatherlink.com 1.10,2013-05-16 07:25:00,
2013-05-16 03:40:00,70.3,61.0,30.08,ENE,74,0.0,0.0,73,0.00,,,0.00,weatherlink.com 1.10,2013-05-16 07:40:00,
2013-05-16 03:55:00,69.6,62.0,30.09,ENE,74,0.0,0.0,77,0.00,,,0.00,weatherlink.com 1.10,2013-05-16 07:55:00,
2013-05-16 04:10:00,68.1,61.0,30.09,ENE,74,0.0,0.0,79,0.00,,,0.00,weatherlink.com 1.10,2013-05-16 08:10:00,
2013-05-16 04:25:00,67.4,62.0,30.09,ENE,74,0.0,0.0,82,0.00,,,0.00,weatherlink.com 1.10,2013-05-16 08:25:00,
2013-05-16 04:40:00,66.9,61.0,30.09,ENE,74,0.0,0.0,82,0.00,,,0.00,weatherlink.com 1.10,2013-05-16 08:40:00,
2013-05-16 04:55:00,66.6,62.0,30.09,ENE,74,0.0,0.0,86,0.00,,,0.00,weatherlink.com 1.10,2013-05-16 08:55:00,
2013-05-16 05:10:00,66.3,62.0,30.09,ENE,74,0.0,0.0,87,0.00,,,0.00,weatherlink.com 1.10,2013-05-16 09:10:00,
2013-05-16 05:25:00,66.3,63.0,30.09,ENE,74,0.0,0.0,88,0.00,,,0.00,weatherlink.com 1.10,2013-05-16 09:25:00,
2013-05-16 05:40:00,66.0,62.0,30.09,ENE,74,0.0,0.0,88,0.00,,,0.00,weatherlink.com 1.10,2013-05-16 09:40:00,
2013-05-16 05:55:00,66.0,63.0,30.09,ENE,74,0.0,0.0,89,0.00,,,0.00,weatherlink.com 1.10,2013-05-16 09:55:00,
2013-05-16 06:10:00,66.2,64.0,30.09,ENE,74,0.0,0.0,91,0.00,,,0.00,weatherlink.com 1.10,2013-05-16 10:10:00,
2013-05-16 06:25:00,65.4,63.0,30.10,ENE,74,0.0,0.0,90,0.00,,,0.00,weatherlink.com 1.10,2013-05-16 10:25:00,
2013-05-16 06:41:00,65.1,62.0,30.11,ENE,74,0.0,0.0,90,0.00,,,0.00,weatherlink.com 1.10,2013-05-16 10:41:00,
2013-05-16 06:56:00,65.7,63.0,30.11,ENE,74,0.0,0.0,92,0.00,,,0.00,weatherlink.com 1.10,2013-05-16 10:56:00,
2013-05-16 07:11:00,66.5,65.0,30.11,ENE,59,0.0,0.0,93,0.00,,,0.00,weatherlink.com 1.10,2013-05-16 11:11:00,
2013-05-16 07:26:00,67.0,65.0,30.12,ENE,76,0.0,0.0,92,0.00,,,0.00,weatherlink.com 1.10,2013-05-16 11:26:00,
2013-05-16 07:41:00,69.3,65.0,30.12,ENE,76,0.0,0.0,85,0.00,,,0.00,weatherlink.com 1.10,2013-05-16 11:41:00,
2013-05-16 07:56:00,72.2,64.0,30.12,NE,46,0.0,0.0,75,0.00,,,0.00,weatherlink.com 1.10,2013-05-16 11:56:00,
2013-05-16 08:11:00,74.2,63.0,30.12,NE,46,0.0,1.0,69,0.00,,,0.00,weatherlink.com 1.10,2013-05-16 12:11:00,
2013-05-16 08:26:00,75.6,63.0,30.12,NE,46,1.0,3.0,66,0.00,,,0.00,weatherlink.com 1.10,2013-05-16 12:26:00,
2013-05-16 08:41:00,77.0,63.0,30.12,ENE,64,1.0,8.0,63,0.00,,,0.00,weatherlink.com 1.10,2013-05-16 12:41:00,
2013-05-16 08:56:00,77.8,63.0,30.13,East,86,0.0,9.0,61,0.00,,,0.00,weatherlink.com 1.10,2013-05-16 12:56:00,
2013-05-16 09:11:00,77.8,63.0,30.13,ENE,70,3.0,13.0,60,0.00,,,0.00,weatherlink.com 1.10,2013-05-16 13:11:00,
2013-05-16 09:26:00,77.4,63.0,30.13,ENE,71,3.0,8.0,61,0.00,,,0.00,weatherlink.com 1.10,2013-05-16 13:26:00,
2013-05-16 09:41:00,78.8,63.0,30.13,ENE,65,2.0,11.0,59,0.00,,,0.00,weatherlink.com 1.10,2013-05-16 13:41:00,
2013-05-16 09:56:00,79.1,62.0,30.14,ENE,69,1.0,11.0,57,0.00,,,0.00,weatherlink.com 1.10,2013-05-16 13:56:00,
2013-05-16 10:11:00,79.8,63.0,30.14,East,84,3.0,11.0,56,0.00,,,0.00,weatherlink.com 1.10,2013-05-16 14:11:00,
2013-05-16 10:26:00,79.8,64.0,30.14,East,98,3.0,11.0,58,0.00,,,0.00,weatherlink.com 1.10,2013-05-16 14:26:00,
2013-05-16 10:41:00,79.5,64.0,30.14,East,85,1.0,10.0,59,0.00,,,0.00,weatherlink.com 1.10,2013-05-16 14:41:00,
2013-05-16 10:56:00,79.8,64.0,30.14,East,89,3.0,11.0,59,0.00,,,0.00,weatherlink.com 1.10,2013-05-16 14:56:00,
2013-05-16 11:11:00,79.9,65.0,30.14,ENE,75,3.0,7.0,60,0.00,,,0.00,weatherlink.com 1.10,2013-05-16 15:11:00,
2013-05-16 11:26:00,81.2,64.0,30.15,NE,55,2.0,11.0,57,0.00,,,0.00,weatherlink.com 1.10,2013-05-16 15:26:00,
2013-05-16 11:41:00,81.0,64.0,30.15,East,90,5.0,10.0,57,0.00,,,0.00,weatherlink.com 1.10,2013-05-16 15:41:00,
2013-05-16 11:56:00,80.4,64.0,30.15,ENE,64,2.0,10.0,57,0.00,,,0.00,weatherlink.com 1.10,2013-05-16 15:56:00,
2013-05-16 12:11:00,81.5,64.0,30.15,NE,46,5.0,6.0,56,0.00,,,0.00,weatherlink.com 1.10,2013-05-16 16:11:00,
2013-05-16 12:26:00,82.2,64.0,30.15,NE,53,6.0,11.0,54,0.00,,,0.00,weatherlink.com 1.10,2013-05-16 16:26:00,
2013-05-16 12:41:00,82.0,64.0,30.14,NE,54,3.0,10.0,54,0.00,,,0.00,weatherlink.com 1.10,2013-05-16 16:41:00,
2013-05-16 12:56:00,82.7,64.0,30.14,ENE,71,2.0,10.0,54,0.00,,,0.00,weatherlink.com 1.10,2013-05-16 16:56:00,
2013-05-16 13:11:00,82.8,64.0,30.14,ENE,68,0.0,11.0,53,0.00,,,0.00,weatherlink.com 1.10,2013-05-16 17:11:00,
2013-05-16 13:26:00,83.5,66.0,30.13,ENE,73,4.0,11.0,55,0.00,,,0.00,weatherlink.com 1.10,2013-05-16 17:26:00,
2013-05-16 13:41:00,83.3,64.0,30.13,East,79,8.0,10.0,53,0.00,,,0.00,weatherlink.com 1.10,2013-05-16 17:41:00,
2013-05-16 13:56:00,82.4,65.0,30.13,ENE,57,2.0,7.0,56,0.00,,,0.00,weatherlink.com 1.10,2013-05-16 17:56:00,
2013-05-16 14:11:00,82.7,65.0,30.12,NE,53,3.0,9.0,55,0.00,,,0.00,weatherlink.com 1.10,2013-05-16 18:11:00,
2013-05-16 14:26:00,82.0,64.0,30.12,NE,44,3.0,9.0,55,0.00,,,0.00,weatherlink.com 1.10,2013-05-16 18:26:00,
2013-05-16 14:41:00,81.2,65.0,30.12,East,80,10.0,11.0,59,0.00,,,0.00,weatherlink.com 1.10,2013-05-16 18:41:00,
2013-05-16 14:56:00,82.2,66.0,30.11,ENE,76,5.0,11.0,58,0.00,,,0.00,weatherlink.com 1.10,2013-05-16 18:56:00,
2013-05-16 15:11:00,82.6,65.0,30.11,East,84,0.0,12.0,56,0.00,,,0.00,weatherlink.com 1.10,2013-05-16 19:11:00,
2013-05-16 15:26:00,82.3,65.0,30.10,ENE,69,1.0,12.0,57,0.00,,,0.00,weatherlink.com 1.10,2013-05-16 19:26:00,
2013-05-16 15:41:00,83.0,65.0,30.10,NNE,27,4.0,12.0,55,0.00,,,0.00,weatherlink.com 1.10,2013-05-16 19:41:00,
2013-05-16 15:56:00,83.4,65.0,30.10,NE,56,4.0,10.0,54,0.00,,,0.00,weatherlink.com 1.10,2013-05-16 19:56:00,
2013-05-16 16:11:00,83.0,65.0,30.09,ENE,63,7.0,11.0,54,0.00,,,0.00,weatherlink.com 1.10,2013-05-16 20:11:00,
2013-05-16 16:26:00,81.6,65.0,30.10,ENE,62,3.0,9.0,57,0.00,,,0.00,weatherlink.com 1.10,2013-05-16 20:26:00,
2013-05-16 16:41:00,82.0,64.0,30.09,East,79,6.0,11.0,55,0.00,,,0.00,weatherlink.com 1.10,2013-05-16 20:41:00,
2013-05-16 16:56:00,81.3,64.0,30.09,NE,43,3.0,13.0,56,0.00,,,0.00,weatherlink.com 1.10,2013-05-16 20:56:00,
2013-05-16 17:11:00,81.9,65.0,30.09,East,86,2.0,9.0,56,0.00,,,0.00,weatherlink.com 1.10,2013-05-16 21:11:00,
2013-05-16 17:26:00,81.7,64.0,30.09,ESE,106,5.0,8.0,56,0.00,,,0.00,weatherlink.com 1.10,2013-05-16 21:26:00,
2013-05-16 17:41:00,81.0,65.0,30.08,East,82,0.0,9.0,58,0.00,,,0.00,weatherlink.com 1.10,2013-05-16 21:41:00,
2013-05-16 17:56:00,81.4,64.0,30.09,ENE,78,9.0,10.0,56,0.00,,,0.00,weatherlink.com 1.10,2013-05-16 21:56:00,
2013-05-16 18:11:00,80.7,64.0,30.08,East,82,6.0,13.0,58,0.00,,,0.00,weatherlink.com 1.10,2013-05-16 22:11:00,
2013-05-16 18:27:00,81.0,66.0,30.08,East,83,2.0,11.0,60,0.00,,,0.00,weatherlink.com 1.10,2013-05-16 22:27:00,
2013-05-16 18:42:00,80.0,65.0,30.08,ENE,77,3.0,12.0,60,0.00,,,0.00,weatherlink.com 1.10,2013-05-16 22:42:00,
2013-05-16 18:57:00,80.1,66.0,30.08,East,91,1.0,11.0,62,0.00,,,0.00,weatherlink.com 1.10,2013-05-16 22:57:00,
2013-05-16 19:12:00,78.8,66.0,30.08,ENE,67,8.0,10.0,64,0.00,,,0.00,weatherlink.com 1.10,2013-05-16 23:12:00,
2013-05-16 19:27:00,77.7,66.0,30.08,ENE,65,4.0,10.0,67,0.00,,,0.00,weatherlink.com 1.10,2013-05-16 23:27:00,
2013-05-16 19:42:00,77.2,65.0,30.08,ENE,78,2.0,8.0,67,0.00,,,0.00,weatherlink.com 1.10,2013-05-16 23:42:00,
2013-05-16 19:57:00,76.7,64.0,30.08,NE,38,5.0,8.0,66,0.00,,,0.00,weatherlink.com 1.10,2013-05-16 23:57:00,
2013-05-16 20:12:00,76.2,65.0,30.09,ENE,69,2.0,9.0,68,0.00,,,0.00,weatherlink.com 1.10,2013-05-17 00:12:00,
2013-05-16 20:27:00,75.8,65.0,30.08,NE,55,5.0,8.0,69,0.00,,,0.00,weatherlink.com 1.10,2013-05-17 00:27:00,
2013-05-16 20:42:00,75.6,65.0,30.09,East,89,0.0,5.0,70,0.00,,,0.00,weatherlink.com 1.10,2013-05-17 00:42:00,
2013-05-16 20:57:00,75.4,65.0,30.09,ENE,74,3.0,7.0,70,0.00,,,0.00,weatherlink.com 1.10,2013-05-17 00:57:00,
2013-05-16 21:12:00,75.2,66.0,30.09,ENE,78,0.0,5.0,72,0.00,,,0.00,weatherlink.com 1.10,2013-05-17 01:12:00,
2013-05-16 21:27:00,75.0,65.0,30.09,ENE,70,0.0,7.0,71,0.00,,,0.00,weatherlink.com 1.10,2013-05-17 01:27:00,
2013-05-16 21:42:00,74.8,65.0,30.09,ENE,68,3.0,5.0,72,0.00,,,0.00,weatherlink.com 1.10,2013-05-17 01:42:00,
2013-05-16 21:57:00,74.7,66.0,30.09,ENE,60,1.0,5.0,73,0.00,,,0.00,weatherlink.com 1.10,2013-05-17 01:57:00,
2013-05-16 22:12:00,74.6,66.0,30.09,ENE,62,0.0,3.0,74,0.00,,,0.00,weatherlink.com 1.10,2013-05-17 02:12:00,
2013-05-16 22:27:00,74.5,66.0,30.09,ENE,62,0.0,3.0,74,0.00,,,0.00,weatherlink.com 1.10,2013-05-17 02:27:00,
2013-05-16 22:42:00,74.8,66.0,30.09,ENE,61,4.0,5.0,75,0.00,,,0.00,weatherlink.com 1.10,2013-05-17 02:42:00,
2013-05-16 22:57:00,75.2,67.0,30.09,East,88,2.0,11.0,75,0.00,,,0.00,weatherlink.com 1.10,2013-05-17 02:57:00,
2013-05-16 23:12:00,75.5,66.0,30.09,ENE,74,2.0,9.0,72,0.00,,,0.00,weatherlink.com 1.10,2013-05-17 03:12:00,
2013-05-16 23:27:00,75.4,65.0,30.09,East,90,0.0,11.0,71,0.00,,,0.00,weatherlink.com 1.10,2013-05-17 03:27:00,
2013-05-16 23:42:00,75.2,66.0,30.10,East,86,2.0,5.0,72,0.00,,,0.00,weatherlink.com 1.10,2013-05-17 03:42:00,
2013-05-16 23:57:00,75.1,66.0,30.10,East,92,1.0,7.0,72,0.00,,,0.00,weatherlink.com 1.10,2013-05-17 03:57:00,